Overview Statistics Trail Chart Weather Telemetry Raw packets
 

This is the latest recevied weather packets stored in our database for station/object JA7ZQY-10. If no packets are shown the sender has not sent any weather packets the latest 10 day(s).

<< 12 13 14 15 16 17 18 >>
Time Temp. Humidity Pressure Rain* Wind** Luminosity Snow
1788380768 22.78° C 99% 1010.1 hPa 2.03 mm - - -
1788380167 22.78° C 99% 1011 hPa 2.29 mm - - -
1788379569 22.78° C 99% 1011.5 hPa 1.78 mm - - -
1788378968 22.78° C 99% 1011.7 hPa 1.27 mm - - -
1788378368 22.78° C 99% 1012 hPa 1.02 mm - - -
1788377767 22.78° C 99% 1012 hPa 0.51 mm - - -
1788377168 22.22° C 99% 1012 hPa 0.25 mm - - -
1788376569 22.22° C 99% 1011.9 hPa 0 mm - - -
1788375969 22.22° C 99% 1011.7 hPa 0 mm - - -
1788375368 22.22° C 99% 1011.3 hPa 0 mm - - -
1788374768 22.22° C 99% 1011.5 hPa 0 mm - - -
1788374169 22.22° C 99% 1011.5 hPa 0.51 mm - - -
1788373569 22.22° C 99% 1011.4 hPa 0.76 mm - - -
1788372969 22.22° C 99% 1011.4 hPa 1.02 mm - - -
1788372369 22.22° C 99% 1011.4 hPa 1.78 mm - - -
1788371769 22.22° C 99% 1011.4 hPa 2.03 mm - - -
1788371168 22.22° C 99% 1011.6 hPa 3.81 mm - - -
1788370567 22.22° C 99% 1011.7 hPa 4.57 mm - - -
1788369969 22.22° C 99% 1011.5 hPa 4.32 mm - - -
1788369368 22.22° C 99% 1011.8 hPa 4.06 mm - - -
1788368770 22.22° C 99% 1012 hPa 4.06 mm - - -
1788368169 22.22° C 99% 1011.6 hPa 3.81 mm - - -
1788367569 22.22° C 99% 1011.4 hPa 1.78 mm - - -
1788366969 22.22° C 99% 1011.7 hPa 1.02 mm - - -
1788366368 22.22° C 99% 1011.3 hPa 2.29 mm - - -

* Rain latest hour (hover to see other rain measurements)
** Current wind speed in m/s (hover to see current wind gust speed)